AL-FARABI 1

Last updated on Tue Jul 25 2023 00:03:38 GMT+0000 (Coordinated Universal Time)

1 42016U 17008BW 23204.99452570 .06708397 23815-5 10367-2 0 9994 2 42016 97.1850 278.5320 0015441 258.3858 101.5706 16.33716732359282

Satellite not in orbit